Year,Month,Day,Hour,Minute,Value (Times are PST for temperature in C)
2015,07,08,00,00,17.10
2015,07,08,00,01,17.10
2015,07,08,00,02,17.10
2015,07,08,00,03,17.10
2015,07,08,00,04,17.00
2015,07,08,00,05,17.00
2015,07,08,00,06,17.00
2015,07,08,00,07,17.00
2015,07,08,00,08,17.00
2015,07,08,00,09,16.90
2015,07,08,00,10,16.90
2015,07,08,00,11,16.90
2015,07,08,00,12,16.90
2015,07,08,00,13,16.90
2015,07,08,00,14,16.90
2015,07,08,00,15,16.90
2015,07,08,00,16,16.90
2015,07,08,00,17,16.90
2015,07,08,00,18,16.90
2015,07,08,00,19,16.90
2015,07,08,00,20,16.90
2015,07,08,00,21,16.90
2015,07,08,00,22,16.90
2015,07,08,00,23,16.90
2015,07,08,00,24,16.90
2015,07,08,00,25,16.90
2015,07,08,00,26,16.90
2015,07,08,00,27,16.90
2015,07,08,00,28,16.90
2015,07,08,00,29,16.90
2015,07,08,00,30,16.90
2015,07,08,00,31,16.80
2015,07,08,00,32,16.80
2015,07,08,00,33,16.80
2015,07,08,00,34,16.80
2015,07,08,00,35,16.80
2015,07,08,00,36,16.80
2015,07,08,00,37,16.80
2015,07,08,00,38,16.80
2015,07,08,00,39,16.80
2015,07,08,00,40,16.70
2015,07,08,00,41,16.70
2015,07,08,00,42,16.70
2015,07,08,00,43,16.70
2015,07,08,00,44,16.70
2015,07,08,00,45,16.70
2015,07,08,00,46,16.70
2015,07,08,00,47,16.70
2015,07,08,00,48,16.70
2015,07,08,00,49,16.70
2015,07,08,00,50,16.60
2015,07,08,00,51,16.60
2015,07,08,00,52,16.60
2015,07,08,00,53,16.60
2015,07,08,00,54,16.60
2015,07,08,00,55,16.50
2015,07,08,00,56,16.40
2015,07,08,00,57,16.40
2015,07,08,00,58,16.40
2015,07,08,00,59,16.40
2015,07,08,01,00,16.40
2015,07,08,01,01,16.40
2015,07,08,01,02,16.40
2015,07,08,01,03,16.40
2015,07,08,01,04,16.30
2015,07,08,01,05,16.30
2015,07,08,01,06,16.30
2015,07,08,01,07,16.30
2015,07,08,01,08,16.30
2015,07,08,01,09,16.30
2015,07,08,01,10,16.30
2015,07,08,01,11,16.30
2015,07,08,01,12,16.20
2015,07,08,01,13,16.20
2015,07,08,01,14,16.20
2015,07,08,01,15,16.20
2015,07,08,01,16,16.20
2015,07,08,01,17,16.20
2015,07,08,01,18,16.20
2015,07,08,01,19,16.10
2015,07,08,01,20,16.10
2015,07,08,01,21,16.10
2015,07,08,01,22,16.10
2015,07,08,01,23,16.10
2015,07,08,01,24,16.10
2015,07,08,01,25,16.10
2015,07,08,01,26,16.20
2015,07,08,01,27,16.20
2015,07,08,01,28,16.20
2015,07,08,01,29,16.20
2015,07,08,01,30,16.20
2015,07,08,01,31,16.20
2015,07,08,01,32,16.20
2015,07,08,01,33,16.20
2015,07,08,01,34,16.20
2015,07,08,01,35,16.20
2015,07,08,01,36,16.20
2015,07,08,01,37,16.20
2015,07,08,01,38,16.20
2015,07,08,01,39,16.20
2015,07,08,01,40,16.20
2015,07,08,01,41,16.20
2015,07,08,01,42,16.20
2015,07,08,01,43,16.20
2015,07,08,01,44,16.20
2015,07,08,01,45,16.10
2015,07,08,01,46,16.10
2015,07,08,01,47,16.10
2015,07,08,01,48,16.10
2015,07,08,01,49,16.10
2015,07,08,01,50,16.10
2015,07,08,01,51,16.10
2015,07,08,01,52,16.10
2015,07,08,01,53,16.10
2015,07,08,01,54,16.00
2015,07,08,01,55,15.90
2015,07,08,01,56,15.90
2015,07,08,01,57,15.90
2015,07,08,01,58,15.90
2015,07,08,01,59,15.90
2015,07,08,02,00,15.80
2015,07,08,02,01,15.80
2015,07,08,02,02,15.80
2015,07,08,02,03,15.90
2015,07,08,02,04,15.90
2015,07,08,02,05,15.90
2015,07,08,02,06,15.80
2015,07,08,02,07,15.80
2015,07,08,02,08,15.80
2015,07,08,02,09,15.80
2015,07,08,02,10,15.80
2015,07,08,02,11,15.80
2015,07,08,02,12,15.80
2015,07,08,02,13,15.80
2015,07,08,02,14,15.80
2015,07,08,02,15,15.80
2015,07,08,02,16,15.80
2015,07,08,02,17,15.80
2015,07,08,02,18,15.80
2015,07,08,02,19,15.80
2015,07,08,02,20,15.70
2015,07,08,02,21,15.70
2015,07,08,02,22,15.60
2015,07,08,02,23,15.60
2015,07,08,02,24,15.60
2015,07,08,02,25,15.60
2015,07,08,02,26,15.50
2015,07,08,02,27,15.50
2015,07,08,02,28,15.50
2015,07,08,02,29,15.50
2015,07,08,02,30,15.50
2015,07,08,02,31,15.50
2015,07,08,02,32,15.50
2015,07,08,02,33,15.50
2015,07,08,02,34,15.50
2015,07,08,02,35,15.50
2015,07,08,02,36,15.40
2015,07,08,02,37,15.40
2015,07,08,02,38,15.30
2015,07,08,02,39,15.30
2015,07,08,02,40,15.30
2015,07,08,02,41,15.30
2015,07,08,02,42,15.30
2015,07,08,02,43,15.30
2015,07,08,02,44,15.20
2015,07,08,02,45,15.20
2015,07,08,02,46,15.10
2015,07,08,02,47,15.10
2015,07,08,02,48,15.00
2015,07,08,02,49,14.90
2015,07,08,02,50,14.90
2015,07,08,02,51,14.80
2015,07,08,02,52,14.70
2015,07,08,02,53,14.60
2015,07,08,02,54,14.60
2015,07,08,02,55,14.50
2015,07,08,02,56,14.40
2015,07,08,02,57,14.30
2015,07,08,02,58,14.20
2015,07,08,02,59,14.20
2015,07,08,03,00,14.20
2015,07,08,03,01,14.10
2015,07,08,03,02,14.00
2015,07,08,03,03,14.00
2015,07,08,03,04,13.90
2015,07,08,03,05,13.90
2015,07,08,03,06,13.80
2015,07,08,03,07,13.80
2015,07,08,03,08,13.70
2015,07,08,03,09,13.70
2015,07,08,03,10,13.70
2015,07,08,03,11,13.70
2015,07,08,03,12,13.60
2015,07,08,03,13,13.60
2015,07,08,03,14,13.60
2015,07,08,03,15,13.50
2015,07,08,03,16,13.50
2015,07,08,03,17,13.50
2015,07,08,03,18,13.50
2015,07,08,03,19,13.40
2015,07,08,03,20,13.40
2015,07,08,03,21,13.40
2015,07,08,03,22,13.30
2015,07,08,03,23,13.30
2015,07,08,03,24,13.30
2015,07,08,03,25,13.30
2015,07,08,03,26,13.30
2015,07,08,03,27,13.30
2015,07,08,03,28,13.30
2015,07,08,03,29,13.30
2015,07,08,03,30,13.30
2015,07,08,03,31,13.30
2015,07,08,03,32,13.30
2015,07,08,03,33,13.30
2015,07,08,03,34,13.30
2015,07,08,03,35,13.30
2015,07,08,03,36,13.30
2015,07,08,03,37,13.30
2015,07,08,03,38,13.30
2015,07,08,03,39,13.30
2015,07,08,03,40,13.30
2015,07,08,03,41,13.30
2015,07,08,03,42,13.30
2015,07,08,03,43,13.30
2015,07,08,03,44,13.30
2015,07,08,03,45,13.30
2015,07,08,03,46,13.30
2015,07,08,03,47,13.30
2015,07,08,03,48,13.30
2015,07,08,03,49,13.30
2015,07,08,03,50,13.30
2015,07,08,03,51,13.30
2015,07,08,03,52,13.30
2015,07,08,03,53,13.30
2015,07,08,03,54,13.30
2015,07,08,03,55,13.30
2015,07,08,03,56,13.30
2015,07,08,03,57,13.30
2015,07,08,03,58,13.30
2015,07,08,03,59,13.30
2015,07,08,04,00,13.30
2015,07,08,04,01,13.30
2015,07,08,04,02,13.30
2015,07,08,04,03,13.30
2015,07,08,04,04,13.30
2015,07,08,04,05,13.40
2015,07,08,04,06,13.40
2015,07,08,04,07,13.40
2015,07,08,04,08,13.40
2015,07,08,04,09,13.40
2015,07,08,04,10,13.40
2015,07,08,04,11,13.40
2015,07,08,04,12,13.40
2015,07,08,04,13,13.40
2015,07,08,04,14,13.40
2015,07,08,04,15,13.40
2015,07,08,04,16,13.40
2015,07,08,04,17,13.40
2015,07,08,04,18,13.40
2015,07,08,04,19,13.40
2015,07,08,04,20,13.40
2015,07,08,04,21,13.50
2015,07,08,04,22,13.50
2015,07,08,04,23,13.40
2015,07,08,04,24,13.40
2015,07,08,04,25,13.40
2015,07,08,04,26,13.40
2015,07,08,04,27,13.40
2015,07,08,04,28,13.40
2015,07,08,04,29,13.30
2015,07,08,04,30,13.30
2015,07,08,04,31,13.30
2015,07,08,04,32,13.30
2015,07,08,04,33,13.30
2015,07,08,04,34,13.30
2015,07,08,04,35,13.30
2015,07,08,04,36,13.30
2015,07,08,04,37,13.30
2015,07,08,04,38,13.30
2015,07,08,04,39,13.30
2015,07,08,04,40,13.30
2015,07,08,04,41,13.30
2015,07,08,04,42,13.30
2015,07,08,04,43,13.30
2015,07,08,04,44,13.30
2015,07,08,04,45,13.20
2015,07,08,04,46,13.20
2015,07,08,04,47,13.20
2015,07,08,04,48,13.20
2015,07,08,04,49,13.10
2015,07,08,04,50,13.10
2015,07,08,04,51,13.10
2015,07,08,04,52,13.10
2015,07,08,04,53,13.10
2015,07,08,04,54,13.00
2015,07,08,04,55,13.00
2015,07,08,04,56,13.00
2015,07,08,04,57,12.90
2015,07,08,04,58,12.90
2015,07,08,04,59,12.90
2015,07,08,05,00,12.90
2015,07,08,05,01,12.90
2015,07,08,05,02,12.80
2015,07,08,05,03,12.80
2015,07,08,05,04,12.80
2015,07,08,05,05,12.80
2015,07,08,05,06,12.80
2015,07,08,05,07,12.80
2015,07,08,05,08,12.80
2015,07,08,05,09,12.80
2015,07,08,05,10,12.80
2015,07,08,05,11,12.80
2015,07,08,05,12,12.80
2015,07,08,05,13,12.80
2015,07,08,05,14,12.80
2015,07,08,05,15,12.80
2015,07,08,05,16,12.80
2015,07,08,05,17,12.80
2015,07,08,05,18,12.80
2015,07,08,05,19,12.80
2015,07,08,05,20,12.80
2015,07,08,05,21,12.70
2015,07,08,05,22,12.70
2015,07,08,05,23,12.70
2015,07,08,05,24,12.80
2015,07,08,05,25,12.80
2015,07,08,05,26,12.80
2015,07,08,05,27,12.80
2015,07,08,05,28,12.80
2015,07,08,05,29,12.80
2015,07,08,05,30,12.80
2015,07,08,05,31,12.80
2015,07,08,05,32,12.80
2015,07,08,05,33,12.80
2015,07,08,05,34,12.80
2015,07,08,05,35,12.80
2015,07,08,05,36,12.80
2015,07,08,05,37,12.80
2015,07,08,05,38,12.80
2015,07,08,05,39,12.80
2015,07,08,05,40,12.80
2015,07,08,05,41,12.80
2015,07,08,05,42,12.80
2015,07,08,05,43,12.80
2015,07,08,05,44,12.80
2015,07,08,05,45,12.80
2015,07,08,05,46,12.80
2015,07,08,05,47,12.90
2015,07,08,05,48,12.90
2015,07,08,05,49,12.90
2015,07,08,05,50,12.90
2015,07,08,05,51,12.90
2015,07,08,05,52,13.00
2015,07,08,05,53,13.00
2015,07,08,05,54,13.00
2015,07,08,05,55,13.00
2015,07,08,05,56,13.10
2015,07,08,05,57,13.10
2015,07,08,05,58,13.10
2015,07,08,05,59,13.10
2015,07,08,06,00,13.20
2015,07,08,06,01,13.20
2015,07,08,06,02,13.20
2015,07,08,06,03,13.30
2015,07,08,06,04,13.30
2015,07,08,06,05,13.30
2015,07,08,06,06,13.30
2015,07,08,06,07,13.30
2015,07,08,06,08,13.30
2015,07,08,06,09,13.30
2015,07,08,06,10,13.30
2015,07,08,06,11,13.30
2015,07,08,06,12,13.30
2015,07,08,06,13,13.30
2015,07,08,06,14,13.30
2015,07,08,06,15,13.30
2015,07,08,06,16,13.30
2015,07,08,06,17,13.30
2015,07,08,06,18,13.30
2015,07,08,06,19,13.30
2015,07,08,06,20,13.30
2015,07,08,06,21,13.40
2015,07,08,06,22,13.40
2015,07,08,06,23,13.40
2015,07,08,06,24,13.40
2015,07,08,06,25,13.40
2015,07,08,06,26,13.40
2015,07,08,06,27,13.50
2015,07,08,06,28,13.50
2015,07,08,06,29,13.50
2015,07,08,06,30,13.50
2015,07,08,06,31,13.50
2015,07,08,06,32,13.50
2015,07,08,06,33,13.50
2015,07,08,06,34,13.60
2015,07,08,06,35,13.60
2015,07,08,06,36,13.60
2015,07,08,06,37,13.60
2015,07,08,06,38,13.50
2015,07,08,06,39,13.50
2015,07,08,06,40,13.50
2015,07,08,06,41,13.40
2015,07,08,06,42,13.40
2015,07,08,06,43,13.40
2015,07,08,06,44,13.30
2015,07,08,06,45,13.30
2015,07,08,06,46,13.30
2015,07,08,06,47,13.30
2015,07,08,06,48,13.20
2015,07,08,06,49,13.20
2015,07,08,06,50,13.20
2015,07,08,06,51,13.20
2015,07,08,06,52,13.20
2015,07,08,06,53,13.20
2015,07,08,06,54,13.20
2015,07,08,06,55,13.20
2015,07,08,06,56,13.20
2015,07,08,06,57,13.30
2015,07,08,06,58,13.30
2015,07,08,06,59,13.30
2015,07,08,07,00,13.30
2015,07,08,07,01,13.30
2015,07,08,07,02,13.30
2015,07,08,07,03,13.40
2015,07,08,07,04,13.40
2015,07,08,07,05,13.50
2015,07,08,07,06,13.50
2015,07,08,07,07,13.50
2015,07,08,07,08,13.50
2015,07,08,07,09,13.50
2015,07,08,07,10,13.50
2015,07,08,07,11,13.60
2015,07,08,07,12,13.60
2015,07,08,07,13,13.60
2015,07,08,07,14,13.70
2015,07,08,07,15,13.70
2015,07,08,07,16,13.70
2015,07,08,07,17,13.70
2015,07,08,07,18,13.80
2015,07,08,07,19,13.80
2015,07,08,07,20,13.90
2015,07,08,07,21,13.90
2015,07,08,07,22,13.90
2015,07,08,07,23,14.00
2015,07,08,07,24,14.00
2015,07,08,07,25,14.00
2015,07,08,07,26,14.10
2015,07,08,07,27,14.10
2015,07,08,07,28,14.10
2015,07,08,07,29,14.10
2015,07,08,07,30,14.10
2015,07,08,07,31,14.10
2015,07,08,07,32,14.10
2015,07,08,07,33,14.20
2015,07,08,07,34,14.20
2015,07,08,07,35,14.20
2015,07,08,07,36,14.20
2015,07,08,07,37,14.30
2015,07,08,07,38,14.30
2015,07,08,07,39,14.40
2015,07,08,07,40,14.40
2015,07,08,07,41,14.40
2015,07,08,07,42,14.50
2015,07,08,07,43,14.50
2015,07,08,07,44,14.60
2015,07,08,07,45,14.60
2015,07,08,07,46,14.70
2015,07,08,07,47,14.70
2015,07,08,07,48,14.80
2015,07,08,07,49,14.80
2015,07,08,07,50,14.90
2015,07,08,07,51,15.00
2015,07,08,07,52,15.00
2015,07,08,07,53,15.10
2015,07,08,07,54,15.10
2015,07,08,07,55,15.20
2015,07,08,07,56,15.20
2015,07,08,07,57,15.30
2015,07,08,07,58,15.30
2015,07,08,07,59,15.30
2015,07,08,08,00,15.40
2015,07,08,08,01,15.40
2015,07,08,08,02,15.50
2015,07,08,08,03,15.50
2015,07,08,08,04,15.60
2015,07,08,08,05,15.70
2015,07,08,08,06,15.70
2015,07,08,08,07,15.80
2015,07,08,08,08,15.80
2015,07,08,08,09,15.80
2015,07,08,08,10,15.80
2015,07,08,08,11,15.90
2015,07,08,08,12,16.00
2015,07,08,08,13,16.10
2015,07,08,08,14,16.10
2015,07,08,08,15,16.20
2015,07,08,08,16,16.30
2015,07,08,08,17,16.40
2015,07,08,08,18,16.40
2015,07,08,08,19,16.60
2015,07,08,08,20,16.60
2015,07,08,08,21,16.70
2015,07,08,08,22,16.70
2015,07,08,08,23,16.80
2015,07,08,08,24,16.90
2015,07,08,08,25,17.00
2015,07,08,08,26,17.10
2015,07,08,08,27,17.20
2015,07,08,08,28,17.30
2015,07,08,08,29,17.40
2015,07,08,08,30,17.50
2015,07,08,08,31,17.50
2015,07,08,08,32,17.60
2015,07,08,08,33,17.60
2015,07,08,08,34,17.60
2015,07,08,08,35,17.60
2015,07,08,08,36,17.60
2015,07,08,08,37,17.60
2015,07,08,08,38,17.60
2015,07,08,08,39,17.50
2015,07,08,08,40,17.50
2015,07,08,08,41,17.60
2015,07,08,08,42,17.60
2015,07,08,08,43,17.60
2015,07,08,08,44,17.70
2015,07,08,08,45,17.70
2015,07,08,08,46,17.70
2015,07,08,08,47,17.80
2015,07,08,08,48,17.80
2015,07,08,08,49,17.80
2015,07,08,08,50,17.70
2015,07,08,08,51,17.60
2015,07,08,08,52,17.60
2015,07,08,08,53,17.50
2015,07,08,08,54,17.40
2015,07,08,08,55,17.30
2015,07,08,08,56,17.20
2015,07,08,08,57,17.10
2015,07,08,08,58,17.00
2015,07,08,08,59,16.90
2015,07,08,09,00,16.90
2015,07,08,09,01,16.90
2015,07,08,09,02,16.90
2015,07,08,09,03,16.90
2015,07,08,09,04,16.90
2015,07,08,09,05,16.90
2015,07,08,09,06,16.90
2015,07,08,09,07,16.90
2015,07,08,09,08,16.90
2015,07,08,09,09,16.90
2015,07,08,09,10,16.90
2015,07,08,09,11,16.90
2015,07,08,09,12,16.90
2015,07,08,09,13,16.90
2015,07,08,09,14,16.80
2015,07,08,09,15,16.80
2015,07,08,09,16,16.80
2015,07,08,09,17,16.70
2015,07,08,09,18,16.60
2015,07,08,09,19,16.60
2015,07,08,09,20,16.60
2015,07,08,09,21,16.60
2015,07,08,09,22,16.60
2015,07,08,09,23,16.60
2015,07,08,09,24,16.60
2015,07,08,09,25,16.60
2015,07,08,09,26,16.60
2015,07,08,09,27,16.60
2015,07,08,09,28,16.70
2015,07,08,09,29,16.70
2015,07,08,09,30,16.70
2015,07,08,09,31,16.70
2015,07,08,09,32,16.70
2015,07,08,09,33,16.70
2015,07,08,09,34,16.70
2015,07,08,09,35,16.70
2015,07,08,09,36,16.70
2015,07,08,09,37,16.70
2015,07,08,09,38,16.80
2015,07,08,09,39,16.90
2015,07,08,09,40,16.90
2015,07,08,09,41,17.00
2015,07,08,09,42,17.00
2015,07,08,09,43,17.00
2015,07,08,09,44,17.00
2015,07,08,09,45,17.10
2015,07,08,09,46,17.10
2015,07,08,09,47,17.20
2015,07,08,09,48,17.20
2015,07,08,09,49,17.20
2015,07,08,09,50,17.20
2015,07,08,09,51,17.20
2015,07,08,09,52,17.30
2015,07,08,09,53,17.40
2015,07,08,09,54,17.40
2015,07,08,09,55,17.50
2015,07,08,09,56,17.60
2015,07,08,09,57,17.70
2015,07,08,09,58,17.70
2015,07,08,09,59,17.90
2015,07,08,10,00,18.00
2015,07,08,10,01,18.10
2015,07,08,10,02,18.20
2015,07,08,10,03,18.20
2015,07,08,10,04,18.20
2015,07,08,10,05,18.20
2015,07,08,10,06,18.20
2015,07,08,10,07,18.20
2015,07,08,10,08,18.20
2015,07,08,10,09,18.20
2015,07,08,10,10,18.20
2015,07,08,10,11,18.20
2015,07,08,10,12,18.20
2015,07,08,10,13,18.20
2015,07,08,10,14,18.10
2015,07,08,10,15,18.10
2015,07,08,10,16,18.10
2015,07,08,10,17,18.20
2015,07,08,10,18,18.20
2015,07,08,10,19,18.20
2015,07,08,10,20,18.20
2015,07,08,10,21,18.30
2015,07,08,10,22,18.30
2015,07,08,10,23,18.30
2015,07,08,10,24,18.50
2015,07,08,10,25,18.60
2015,07,08,10,26,18.60
2015,07,08,10,27,18.50
2015,07,08,10,28,18.60
2015,07,08,10,29,18.60
2015,07,08,10,30,18.60
2015,07,08,10,31,18.60
2015,07,08,10,32,18.70
2015,07,08,10,33,18.80
2015,07,08,10,34,18.70
2015,07,08,10,35,18.60
2015,07,08,10,36,18.50
2015,07,08,10,37,18.60
2015,07,08,10,38,18.70
2015,07,08,10,39,18.70
2015,07,08,10,40,18.80
2015,07,08,10,41,18.90
2015,07,08,10,42,18.90
2015,07,08,10,43,18.90
2015,07,08,10,44,18.90
2015,07,08,10,45,18.80
2015,07,08,10,46,18.80
2015,07,08,10,47,18.80
2015,07,08,10,48,18.80
2015,07,08,10,49,18.80
2015,07,08,10,50,18.80
2015,07,08,10,51,18.70
2015,07,08,10,52,18.60
2015,07,08,10,53,18.60
2015,07,08,10,54,18.50
2015,07,08,10,55,18.30
2015,07,08,10,56,18.30
2015,07,08,10,57,18.20
2015,07,08,10,58,18.20
2015,07,08,10,59,18.00
2015,07,08,11,00,17.90
2015,07,08,11,01,17.90
2015,07,08,11,02,17.90
2015,07,08,11,03,18.00
2015,07,08,11,04,18.10
2015,07,08,11,05,18.20
2015,07,08,11,06,18.40
2015,07,08,11,07,18.40
2015,07,08,11,08,18.50
2015,07,08,11,09,18.50
2015,07,08,11,10,18.60
2015,07,08,11,11,18.60
2015,07,08,11,12,18.70
2015,07,08,11,13,18.70
2015,07,08,11,14,18.90
2015,07,08,11,15,18.90
2015,07,08,11,16,18.90
2015,07,08,11,17,18.90
2015,07,08,11,18,18.90
2015,07,08,11,19,19.00
2015,07,08,11,20,19.10
2015,07,08,11,21,19.10
2015,07,08,11,22,19.10
2015,07,08,11,23,19.10
2015,07,08,11,24,19.10
2015,07,08,11,25,19.10
2015,07,08,11,26,19.10
2015,07,08,11,27,19.20
2015,07,08,11,28,19.20
2015,07,08,11,29,19.20
2015,07,08,11,30,19.10
2015,07,08,11,31,19.20
2015,07,08,11,32,19.20
2015,07,08,11,33,19.30
2015,07,08,11,34,19.30
2015,07,08,11,35,19.30
2015,07,08,11,36,19.30
2015,07,08,11,37,19.30
2015,07,08,11,38,19.40
2015,07,08,11,39,19.50
2015,07,08,11,40,19.50
2015,07,08,11,41,19.70
2015,07,08,11,42,19.80
2015,07,08,11,43,19.90
2015,07,08,11,44,19.90
2015,07,08,11,45,19.90
2015,07,08,11,46,19.90
2015,07,08,11,47,19.90
2015,07,08,11,48,19.90
2015,07,08,11,49,20.10
2015,07,08,11,50,20.10
2015,07,08,11,51,20.10
2015,07,08,11,52,20.10
2015,07,08,11,53,20.10
2015,07,08,11,54,20.10
2015,07,08,11,55,20.10
2015,07,08,11,56,20.20
2015,07,08,11,57,20.20
2015,07,08,11,58,20.20
2015,07,08,11,59,20.30
2015,07,08,12,00,20.40
2015,07,08,12,01,20.50
2015,07,08,12,02,20.40
2015,07,08,12,03,20.30
2015,07,08,12,04,20.20
2015,07,08,12,05,20.10
2015,07,08,12,06,20.10
2015,07,08,12,07,20.00
2015,07,08,12,08,19.90
2015,07,08,12,09,19.90
2015,07,08,12,10,19.90
2015,07,08,12,11,19.90
2015,07,08,12,12,19.80
2015,07,08,12,13,19.80
2015,07,08,12,14,19.80
2015,07,08,12,15,19.90
2015,07,08,12,16,19.80
2015,07,08,12,17,19.70
2015,07,08,12,18,19.70
2015,07,08,12,19,19.80
2015,07,08,12,20,19.90
2015,07,08,12,21,19.90
2015,07,08,12,22,19.90
2015,07,08,12,23,19.90
2015,07,08,12,24,19.70
2015,07,08,12,25,19.60
2015,07,08,12,26,19.40
2015,07,08,12,27,19.20
2015,07,08,12,28,19.10
2015,07,08,12,29,19.10
2015,07,08,12,30,19.20
2015,07,08,12,31,19.30
2015,07,08,12,32,19.40
2015,07,08,12,33,19.40
2015,07,08,12,34,19.40
2015,07,08,12,35,19.50
2015,07,08,12,36,19.40
2015,07,08,12,37,19.40
2015,07,08,12,38,19.40
2015,07,08,12,39,19.50
2015,07,08,12,40,19.50
2015,07,08,12,41,19.60
2015,07,08,12,42,19.50
2015,07,08,12,43,19.40
2015,07,08,12,44,19.30
2015,07,08,12,45,19.30
2015,07,08,12,46,19.30
2015,07,08,12,47,19.30
2015,07,08,12,48,19.20
2015,07,08,12,49,19.20
2015,07,08,12,50,19.20
2015,07,08,12,51,19.20
2015,07,08,12,52,19.20
2015,07,08,12,53,19.30
2015,07,08,12,54,19.40
2015,07,08,12,55,19.50
2015,07,08,12,56,19.50
2015,07,08,12,57,19.50
2015,07,08,12,58,19.60
2015,07,08,12,59,19.60
2015,07,08,13,00,19.70
2015,07,08,13,01,19.70
2015,07,08,13,02,19.70
2015,07,08,13,03,19.60
2015,07,08,13,04,19.60
2015,07,08,13,05,19.70
2015,07,08,13,06,19.70
2015,07,08,13,07,19.80
2015,07,08,13,08,19.90
2015,07,08,13,09,19.90
2015,07,08,13,10,19.90
2015,07,08,13,11,20.00
2015,07,08,13,12,20.20
2015,07,08,13,13,20.20
2015,07,08,13,14,20.20
2015,07,08,13,15,20.30
2015,07,08,13,16,20.30
2015,07,08,13,17,20.30
2015,07,08,13,18,20.20
2015,07,08,13,19,20.20
2015,07,08,13,20,20.30
2015,07,08,13,21,20.30
2015,07,08,13,22,20.30
2015,07,08,13,23,20.30
2015,07,08,13,24,20.40
2015,07,08,13,25,20.50
2015,07,08,13,26,20.60
2015,07,08,13,27,20.70
2015,07,08,13,28,20.80
2015,07,08,13,29,20.80
2015,07,08,13,30,20.70
2015,07,08,13,31,20.80
2015,07,08,13,32,20.90
2015,07,08,13,33,21.10
2015,07,08,13,34,21.20
2015,07,08,13,35,21.30
2015,07,08,13,36,21.50
2015,07,08,13,37,21.60
2015,07,08,13,38,21.80
2015,07,08,13,39,21.90
2015,07,08,13,40,22.00
2015,07,08,13,41,21.90
2015,07,08,13,42,21.80
2015,07,08,13,43,21.80
2015,07,08,13,44,21.90
2015,07,08,13,45,22.00
2015,07,08,13,46,22.10
2015,07,08,13,47,22.10
2015,07,08,13,48,22.10
2015,07,08,13,49,22.10
2015,07,08,13,50,22.00
2015,07,08,13,51,22.00
2015,07,08,13,52,22.00
2015,07,08,13,53,22.10
2015,07,08,13,54,22.10
2015,07,08,13,55,22.10
2015,07,08,13,56,22.00
2015,07,08,13,57,21.90
2015,07,08,13,58,22.00
2015,07,08,13,59,22.00
2015,07,08,14,00,22.00
2015,07,08,14,01,22.00
2015,07,08,14,02,22.10
2015,07,08,14,03,22.00
2015,07,08,14,04,22.00
2015,07,08,14,05,22.20
2015,07,08,14,06,22.30
2015,07,08,14,07,22.40
2015,07,08,14,08,22.50
2015,07,08,14,09,22.70
2015,07,08,14,10,22.80
2015,07,08,14,11,22.80
2015,07,08,14,12,22.70
2015,07,08,14,13,22.70
2015,07,08,14,14,22.70
2015,07,08,14,15,22.60
2015,07,08,14,16,22.70
2015,07,08,14,17,22.70
2015,07,08,14,18,22.80
2015,07,08,14,19,22.80
2015,07,08,14,20,22.80
2015,07,08,14,21,22.90
2015,07,08,14,22,22.90
2015,07,08,14,23,22.90
2015,07,08,14,24,22.90
2015,07,08,14,25,23.00
2015,07,08,14,26,23.10
2015,07,08,14,27,23.00
2015,07,08,14,28,22.90
2015,07,08,14,29,22.90
2015,07,08,14,30,22.90
2015,07,08,14,31,22.80
2015,07,08,14,32,22.80
2015,07,08,14,33,22.80
2015,07,08,14,34,22.80
2015,07,08,14,35,22.80
2015,07,08,14,36,22.80
2015,07,08,14,37,22.90
2015,07,08,14,38,22.90
2015,07,08,14,39,23.00
2015,07,08,14,40,23.10
2015,07,08,14,41,23.20
2015,07,08,14,42,23.30
2015,07,08,14,43,23.10
2015,07,08,14,44,23.00
2015,07,08,14,45,22.90
2015,07,08,14,46,22.90
2015,07,08,14,47,22.90
2015,07,08,14,48,22.80
2015,07,08,14,49,22.90
2015,07,08,14,50,23.00
2015,07,08,14,51,23.10
2015,07,08,14,52,23.30
2015,07,08,14,53,23.40
2015,07,08,14,54,23.50
2015,07,08,14,55,23.60
2015,07,08,14,56,23.60
2015,07,08,14,57,23.60
2015,07,08,14,58,23.40
2015,07,08,14,59,23.20
2015,07,08,15,00,23.00
2015,07,08,15,01,22.90
2015,07,08,15,02,22.70
2015,07,08,15,03,22.70
2015,07,08,15,04,22.70
2015,07,08,15,05,22.60
2015,07,08,15,06,22.60
2015,07,08,15,07,22.50
2015,07,08,15,08,22.50
2015,07,08,15,09,22.60
2015,07,08,15,10,22.60
2015,07,08,15,11,22.50
2015,07,08,15,12,22.40
2015,07,08,15,13,22.30
2015,07,08,15,14,22.20
2015,07,08,15,15,22.10
2015,07,08,15,16,22.00
2015,07,08,15,17,21.90
2015,07,08,15,18,21.80
2015,07,08,15,19,21.80
2015,07,08,15,20,21.60
2015,07,08,15,21,21.60
2015,07,08,15,22,21.50
2015,07,08,15,23,21.40
2015,07,08,15,24,21.50
2015,07,08,15,25,21.50
2015,07,08,15,26,21.60
2015,07,08,15,27,21.60
2015,07,08,15,28,21.60
2015,07,08,15,29,21.60
2015,07,08,15,30,21.60
2015,07,08,15,31,21.60
2015,07,08,15,32,21.80
2015,07,08,15,33,21.90
2015,07,08,15,34,22.10
2015,07,08,15,35,22.30
2015,07,08,15,36,22.40
2015,07,08,15,37,22.40
2015,07,08,15,38,22.40
2015,07,08,15,39,22.40
2015,07,08,15,40,22.40
2015,07,08,15,41,22.60
2015,07,08,15,42,22.60
2015,07,08,15,43,22.70
2015,07,08,15,44,22.70
2015,07,08,15,45,22.70
2015,07,08,15,46,22.80
2015,07,08,15,47,22.90
2015,07,08,15,48,22.90
2015,07,08,15,49,22.90
2015,07,08,15,50,23.10
2015,07,08,15,51,23.20
2015,07,08,15,52,23.40
2015,07,08,15,53,23.60
2015,07,08,15,54,23.80
2015,07,08,15,55,24.00
2015,07,08,15,56,24.10
2015,07,08,15,57,24.10
2015,07,08,15,58,24.10
2015,07,08,15,59,24.10
2015,07,08,16,00,24.10
2015,07,08,16,01,24.10
2015,07,08,16,02,24.00
2015,07,08,16,03,24.00
2015,07,08,16,04,24.10
2015,07,08,16,05,24.10
2015,07,08,16,06,24.00
2015,07,08,16,07,23.90
2015,07,08,16,08,23.90
2015,07,08,16,09,23.90
2015,07,08,16,10,23.80
2015,07,08,16,11,23.80
2015,07,08,16,12,23.80
2015,07,08,16,13,23.70
2015,07,08,16,14,23.60
2015,07,08,16,15,23.60
2015,07,08,16,16,23.60
2015,07,08,16,17,23.60
2015,07,08,16,18,23.50
2015,07,08,16,19,23.50
2015,07,08,16,20,23.60
2015,07,08,16,21,23.60
2015,07,08,16,22,23.60
2015,07,08,16,23,23.50
2015,07,08,16,24,23.40
2015,07,08,16,25,23.60
2015,07,08,16,26,23.50
2015,07,08,16,27,23.40
2015,07,08,16,28,23.30
2015,07,08,16,29,23.30
2015,07,08,16,30,23.30
2015,07,08,16,31,23.30
2015,07,08,16,32,23.30
2015,07,08,16,33,23.30
2015,07,08,16,34,23.30
2015,07,08,16,35,23.30
2015,07,08,16,36,23.40
2015,07,08,16,37,23.40
2015,07,08,16,38,23.30
2015,07,08,16,39,23.30
2015,07,08,16,40,23.20
2015,07,08,16,41,23.10
2015,07,08,16,42,23.00
2015,07,08,16,43,22.90
2015,07,08,16,44,22.90
2015,07,08,16,45,22.90
2015,07,08,16,46,22.80
2015,07,08,16,47,22.80
2015,07,08,16,48,22.90
2015,07,08,16,49,22.90
2015,07,08,16,50,22.90
2015,07,08,16,51,22.90
2015,07,08,16,52,22.90
2015,07,08,16,53,22.80
2015,07,08,16,54,22.70
2015,07,08,16,55,22.60
2015,07,08,16,56,22.50
2015,07,08,16,57,22.40
2015,07,08,16,58,22.30
2015,07,08,16,59,22.20
2015,07,08,17,00,22.10
2015,07,08,17,01,22.00
2015,07,08,17,02,21.90
2015,07,08,17,03,21.80
2015,07,08,17,04,21.80
2015,07,08,17,05,21.80
2015,07,08,17,06,21.80
2015,07,08,17,07,21.80
2015,07,08,17,08,21.80
2015,07,08,17,09,22.00
2015,07,08,17,10,22.00
2015,07,08,17,11,22.10
2015,07,08,17,12,22.20
2015,07,08,17,13,22.20
2015,07,08,17,14,22.20
2015,07,08,17,15,22.30
2015,07,08,17,16,22.40
2015,07,08,17,17,22.50
2015,07,08,17,18,22.60
2015,07,08,17,19,22.70